Flight Track Log - Related Links

Times and Time Zones

All times are in EDT time to prevent confusion due to time zone crossing. See the SWA1046 flight status page for this flight to view local times or setup timezone preferences in your user account.

Time Position Orientation Groundspeed Altitude Reporting Facility
EDT Latitude Longitude Course Direction KTS MPH feet Rate Location/Type
Thu 04:49:10 PM 32.8333 -96.8333 140° Southeast 174 200 1,400  Level Dallas / Fort Worth TRACON
Thu 04:50:04 PM 32.8000 -96.8000 140° Southeast 185 213 4,200 2,524 Climbing Dallas / Fort Worth TRACON
Thu 04:51:16 PM 32.7833 -96.7333 107° East 282 325 6,700 1,727 Climbing Dallas / Fort Worth TRACON
Thu 04:52:16 PM 32.8667 -96.7333 360° North 309 356 8,000 2,065 Climbing Dallas / Fort Worth TRACON
Thu 04:53:50 PM 32.9428 -96.8489 308° West 301 346 12,000 2,532 Climbing Fort Worth Center
Thu 04:54:50 PM 33.0181 -96.8856 338° Northwest 281 323 14,500 2,400 Climbing Fort Worth Center
Thu 04:55:50 PM 33.1017 -96.9175 342° North 325 374 16,800 2,600 Climbing Fort Worth Center
Thu 04:56:50 PM 33.2167 -96.9392 351° North 370 426 19,700 2,850 Climbing Fort Worth Center
Thu 04:57:50 PM 33.3272 -96.9611 351° North 396 456 22,500 2,500 Climbing Fort Worth Center
Thu 04:58:50 PM 33.4256 -96.9828 350° North 396 456 24,700 1,250 Climbing Fort Worth Center
Thu 04:59:50 PM 33.5508 -97.0072 351° North 403 464 25,000 150 Climbing Fort Worth Center
Thu 05:00:50 PM 33.6469 -97.0267 350° North 403 464 25,000  Level Fort Worth Center
Thu 05:01:50 PM 33.7681 -97.0511 350° North 403 464 25,000  Level Fort Worth Center
Thu 05:02:50 PM 33.8744 -97.0758 349° North 392 451 25,000  Level Fort Worth Center
Thu 05:03:50 PM 33.9831 -97.0978 350° North 392 451 25,000 -500 Level Fort Worth Center
Thu 05:04:50 PM 34.0917 -97.1250 348° North 392 451 24,000 -1,261 Descending Fort Worth Center
Thu 05:05:49 PM 34.1772 -97.1400 352° North 392 451 22,500 -1,800 Descending Fort Worth Center
Thu 05:06:50 PM 34.3025 -97.1647 351° North 387 445 20,400 -1,934 Descending Fort Worth Center
Thu 05:07:50 PM 34.4006 -97.1844 351° North 375 432 18,600 -1,700 Descending Fort Worth Center
Thu 05:08:50 PM 34.4986 -97.2044 350° North 370 426 17,000 -1,900 Descending Fort Worth Center
Thu 05:09:50 PM 34.5989 -97.2269 350° North 365 420 14,800 -2,090 Descending Fort Worth Center
Thu 05:10:19 PM 34.6511 -97.2342 354° North 361 415 13,900 -1,600 Descending Fort Worth Center
Thu 05:10:50 PM 34.6969 -97.2469 347° North 360 414 13,200 -1,125 Descending Fort Worth Center
Thu 05:11:07 PM 34.7242 -97.2544 347° North 350 403 13,000 -1,200 Descending Fort Worth Center
Thu 05:11:50 PM 34.7867 -97.2644 353° North 347 399 12,000 -1,377 Descending Fort Worth Center
Thu 05:12:08 PM 34.8139 -97.2719 347° North 319 367 11,600 -1,100 Descending Fort Worth Center
Thu 05:12:50 PM 34.8722 -97.2869 348° North 324 373 10,900 -1,100 Descending Fort Worth Center
Thu 05:13:08 PM 34.8931 -97.2972 338° Northwest 305 351 10,500 -1,400 Descending Fort Worth Center
Thu 05:13:50 PM 34.9472 -97.3300 334° Northwest 305 351 9,500 -1,475 Descending Fort Worth Center
Thu 05:14:09 PM 34.9725 -97.3450 334° Northwest 293 337 9,000 -1,300 Descending Fort Worth Center
Thu 05:14:50 PM 35.0183 -97.3756 331° Northwest 294 338 8,200 -1,377 Descending Fort Worth Center
Thu 05:15:10 PM 35.0453 -97.3933 332° Northwest 287 330 7,600 -1,700 Descending Fort Worth Center
Thu 05:15:50 PM 35.0914 -97.4186 336° Northwest 289 333 6,500 -1,600 Descending Fort Worth Center
Thu 05:16:10 PM 35.1164 -97.4364 330° Northwest 287 330 6,000 -500 Descending Fort Worth Center
Thu 05:16:50 PM 35.1642 -97.4619 336° Northwest 289 333 6,000  Level Fort Worth Center
Thu 05:17:11 PM 35.1872 -97.4822 324° Northwest 287 330 6,000  Level Fort Worth Center
Thu 05:17:50 PM 35.2372 -97.4925 350° North 284 327 6,000  Level Fort Worth Center
Thu 05:18:12 PM 35.2644 -97.4950 356° North 291 335 6,000  Level Fort Worth Center
Thu 05:18:50 PM 35.3164 -97.4950 360° North 279 321 6,000  Level Fort Worth Center
Thu 05:19:12 PM 35.3394 -97.4975 355° North 265 305 6,000  Level Fort Worth Center
Thu 05:19:50 PM 35.3728 -97.4975 360° North 272 313 6,000  Level Fort Worth Center
Thu 05:20:13 PM 35.4125 -97.4975 360° North 234 269 6,000 -400 Level Fort Worth Center
Thu 05:20:50 PM 35.4478 -97.4978 360° North 255 293 5,600 -689 Descending Fort Worth Center
Thu 05:21:14 PM 35.4792 -97.4978 360° North 241 277 5,300 -600 Descending Fort Worth Center
Thu 05:21:50 PM 35.5125 -97.4978 360° North 242 278 5,000 -900 Descending Fort Worth Center
Thu 05:22:14 PM 35.5417 -97.5003 356° North 226 260 4,400 -900 Descending Fort Worth Center
Thu 05:22:50 PM 35.5750 -97.5003 360° North 231 266 4,100 -393 Descending Fort Worth Center
Thu 05:23:15 PM 35.5917 -97.5258 309° West 214 246 4,000 -100 Descending Fort Worth Center
Thu 05:23:50 PM 35.5981 -97.5564 284° West 189 217 4,000  Level Fort Worth Center
Thu 05:24:15 PM 35.5772 -97.5819 225° Southwest 197 227 4,000  Level Fort Worth Center
Thu 05:24:50 PM 35.5561 -97.5922 202° Southwest 114 131 4,000 -393 Level Fort Worth Center
Thu 05:25:16 PM 35.5311 -97.5922 180° South 166 191 3,600 -828 Descending Fort Worth Center
Thu 05:26:17 PM 35.4811 -97.5919 180° South 161 185 2,800 -787 Descending Fort Worth Center

Login

Don't have an account? Register now (free) for customized features, flight alerts, and more!